[Iaude] MPEC Q88: 2020 PR6 [a=2.61,e=0.65,i=27.4,H=19.3]

mpec at marsden.cfa.harvard.edu mpec at marsden.cfa.harvard.edu
Wed Aug 19 02:26:41 EDT 2020


M.P.E.C. 2020-Q88                               Issued 2020 August 19, 06:25 UT

     The Minor Planet Electronic Circulars contain information on unusual
         minor planets and routine data on comets.  They are published
    on behalf of Division F of the International Astronomical Union by the
          Minor Planet Center, Smithsonian Astrophysical Observatory,
                          Cambridge, MA 02138, U.S.A.

             Prepared using the Tamkin Foundation Computer Network

                              MPC at CFA.HARVARD.EDU
            URL https://www.minorplanetcenter.net/    ISSN 1523-6714

                                    2020 PR6                                    


Observations:
     K20P06R* S2020 08 14.25526 04 22 57.95 -39 26 16.1          19   RLEQ088C51
     K20P06R  s2020 08 14.25526 1 + 1235.6836 + 5215.2919 - 4280.8399   EQ088C51
     K20P06R  S2020 08 14.71303 04 22 48.47 -39 38 40.1                LEQ088C51
     K20P06R  s2020 08 14.71303 1 + 1194.8617 + 5215.1362 - 4292.7034   EQ088C51
     K20P06R  S2020 08 14.77849 04 22 47.04 -39 40 26.0                LEQ088C51
     K20P06R  s2020 08 14.77849 1 + 1189.7283 + 5192.1080 - 4321.9999   EQ088C51
     K20P06R  S2020 08 14.84381 04 22 45.64 -39 42 10.1                LEQ088C51
     K20P06R  s2020 08 14.84381 1 + 1182.9655 + 5222.6692 - 4286.8514   EQ088C51
     K20P06R  S2020 08 14.90926 04 22 44.30 -39 43 55.2                LEQ088C51
     K20P06R  s2020 08 14.90926 1 + 1177.8848 + 5199.6957 - 4316.1343   EQ088C51
     K20P06R  S2020 08 14.97459 04 22 42.83 -39 45 38.3                LEQ088C51
     K20P06R  s2020 08 14.97459 1 + 1171.0392 + 5230.2024 - 4280.9554   EQ088C51
     K20P06R  S2020 08 14.97471 04 22 42.82 -39 45 38.3                LEQ088C51
     K20P06R  s2020 08 14.97471 1 + 1172.8214 + 5176.5170 - 4345.3263   EQ088C51
     K20P06R  S2020 08 15.04004 04 22 41.37 -39 47 23.2                LEQ088C51
     K20P06R  s2020 08 15.04004 1 + 1166.0129 + 5207.2074 - 4310.3125   EQ088C51
     K20P06R  S2020 08 15.10549 04 22 39.92 -39 49 07.6                LEQ088C51
     K20P06R  s2020 08 15.10549 1 + 1161.0026 + 5184.0870 - 4339.4893   EQ088C51
     K20P06R  S2020 08 15.23627 04 22 37.03 -39 52 34.1                LEQ088C51
     K20P06R  s2020 08 15.23627 1 + 1149.1547 + 5191.6134 - 4333.6587   EQ088C51
     K20P06R 1C2020 08 18.79809 04 21 04.18 -41 21 24.5                VEQ088Q62
     K20P06R 1C2020 08 18.80040 04 21 04.09 -41 21 27.8                VEQ088Q62
     K20P06R 1C2020 08 18.80270 04 21 04.01 -41 21 31.0          20.3 GVEQ088Q62

Observer details:
C51 WISE.  Observer Near-Earth Object Wide-field Infrared Survey Explorer.
    Measurers A. K. Mainzer, J. M. Bauer, T. Grav, J. R. Masiero, R. M. Cutri,
    J. W. Dailey, E. Kramer, J. Pittichova, S. Sonnett, E. L. Wright.
Q62 iTelescope Observatory, Siding Spring.  Observer H. Sato.  0.51-m f/6.8
    astrograph + CCD + f/4.5 focal reducer.

Orbital elements:
2020 PR6                                                 Earth MOID = 0.1038 AU
Epoch 2020 May 31.0 TT = JDT 2459000.5                  Bell                    
M 352.57421              (2000.0)            P               Q                  
n   0.23402929     Peri.  168.79152     +0.20258953     +0.88109460             
a   2.6078898      Node   111.71514     -0.93027062     +0.30946764             
e   0.6534484      Incl.   27.38683     -0.30586607     -0.35763401             
P   4.21           H   19.36          G   0.15           U   9                  
Residuals in seconds of arc
200814 C51  0.2-  0.6+    200814 C51  0.2+  0.8+    200818 Q62  0.0-  0.1-
200814 C51  0.3+  0.4-    200814 C51  0.0+  0.7+    200818 Q62  0.0-  0.0-
200814 C51  0.1-  1.1-    200815 C51  0.2-  0.1+    200818 Q62  0.1+  0.1+
200814 C51  0.1-  0.3-    200815 C51  0.4-  0.3-
200814 C51  0.7+  0.7-    200815 C51  0.2-  0.6+

Ephemeris:
2020 PR6                 a,e,i = 2.61, 0.65, 27                  q = 0.9038
Date    TT    R. A. (2000) Decl.     Delta      r    Elong.  Phase     V
2020 07 20    04 31 28.4 -14 53 13   0.1896  0.9421    62.0   107.8    19.7
...
2020 08 04    04 25 18.0 -33 39 12   0.3231  1.0226    82.3    79.5    19.7
...
2020 08 12    04 23 39.6 -38 22 13   0.3933  1.0785    88.7    69.9    20.0
...
2020 08 18    04 21 27.3 -41 02 17   0.4434  1.1247    92.8    64.0    20.1
2020 08 19    04 20 57.4 -41 26 06   0.4515  1.1327    93.4    63.1    20.1
2020 08 20    04 20 25.0 -41 49 12   0.4596  1.1407    94.1    62.2    20.2
...
2020 08 26    04 16 10.5 -43 55 00   0.5066  1.1904    97.8    57.2    20.3
...
2020 09 03    04 07 32.9 -46 13 12   0.5664  1.2597   102.6    51.4    20.5
...
2020 09 18    03 41 26.9 -49 04 59   0.6742  1.3947   110.8    42.3    20.9

M. P. C. Staff               (C) Copyright 2020 MPC           M.P.E.C. 2020-Q88




More information about the Iaude mailing list